Jackson, WY

5:02 AM MDT on August 23, 2017 (GMT -0600)
Jackson Hole

Weather History for KJAC - July, 2013

Change the Weather History Date:

Saturday, July 27, 2013

  Actual Average Record
Temperature  
Mean Temperature 60 °F -  
Max Temperature 66 °F 80 °F 90 °F (1988)
Min Temperature 53 °F 41 °F 31 °F (1963)
Degree Days  
Heating Degree Days 6    
Growing Degree Days 10 (Base 50)    
Moisture  
Dew Point 44 °F    
Average Humidity 60    
Maximum Humidity 94    
Minimum Humidity 36    
Precipitation  
Precipitation 0.00 in - - ()
Sea Level Pressure  
Sea Level Pressure 30.22 in    
Wind  
Wind Speed 5 mph (NNW)    
Max Wind Speed 13 mph    
Max Gust Speed 33 mph    
Visibility 10 miles    
Events Rain , Thunderstorm    
Averages and records for this station are not official NWS values.
T = Trace of Precipitation, MM = Missing Value Source: NWS Daily Summary

Daily Weather History Graph

Daily Weather History Graph

Search for Another Location

Airport or City:

Trip Planner

Search our weather history database for the weather conditions in past years. The results will help you decide how hot, cold, wet, or windy it might be!

Date:

Astronomy

Jul. 27, 2013 Rise Set
Actual Time 6:07 AM MDT 8:51 PM MDT
Civil Twilight 5:34 AM MDT 9:24 PM MDT
Nautical Twilight 4:52 AM MDT 10:05 PM MDT
Astronomical Twilight 4:03 AM MDT 10:53 PM MDT
Moon 11:26 PM MDT (7/27) 12:04 PM MDT (7/27)
Length of Visible Light 15h 50m
Length of Day
14h 43m
Waning Gibbous, 70% of the Moon is Illuminated
Jul 27
Waning Gibbous
Jul 29
Last Quarter
Aug 6
New
Aug 14
First Quarter
Aug 20
Full

Hourly Weather History & Observations

Time (MDT) Temp. Dew Point Humidity Pressure Visibility Wind Dir Wind Speed Gust Speed Precip Events Conditions
12:15 AM 60.8 °F 33.8 °F 36% 30.25 in 10.0 mi North 4.6 mph - N/A   Clear
12:35 AM 57.2 °F 35.6 °F 44% 30.25 in 10.0 mi North 3.5 mph - N/A   Clear
12:55 AM 57.2 °F 37.4 °F 48% 30.25 in 10.0 mi North 3.5 mph - N/A   Clear
1:15 AM 57.2 °F 33.8 °F 41% 30.25 in 10.0 mi NNE 3.5 mph - N/A   Clear
1:35 AM 53.6 °F 37.4 °F 54% 30.25 in 10.0 mi NNW 6.9 mph - N/A   Clear
1:55 AM 53.6 °F 37.4 °F 54% 30.25 in 10.0 mi Calm Calm - N/A   Clear
2:15 AM 55.4 °F 37.4 °F 51% 30.25 in 10.0 mi NW 4.6 mph - N/A   Clear
2:35 AM 55.4 °F 37.4 °F 51% 30.24 in 10.0 mi NW 5.8 mph - N/A   Clear
2:55 AM 55.4 °F 35.6 °F 47% 30.23 in 10.0 mi NNE 3.5 mph - N/A   Scattered Clouds
3:35 AM 55.4 °F 37.4 °F 51% 30.28 in 10.0 mi WSW 6.9 mph - N/A Thunderstorm Mostly Cloudy
3:55 AM 62.6 °F 41.0 °F 45% 30.25 in 10.0 mi North 9.2 mph 33.4 mph N/A Thunderstorm Mostly Cloudy
4:15 AM 59.0 °F 39.2 °F 48% 30.26 in 10.0 mi East 12.7 mph 23.0 mph N/A   Mostly Cloudy
4:35 AM 57.2 °F 37.4 °F 48% 30.26 in 10.0 mi East 6.9 mph - N/A   Mostly Cloudy
4:55 AM 57.2 °F 37.4 °F 48% 30.25 in 10.0 mi NW 3.5 mph - N/A   Mostly Cloudy
5:15 AM 57.2 °F 39.2 °F 51% 30.24 in 10.0 mi SSE 3.5 mph - N/A   Partly Cloudy
5:35 AM 55.4 °F 39.2 °F 54% 30.23 in 10.0 mi West 6.9 mph - N/A   Partly Cloudy
5:55 AM 55.4 °F 41.0 °F 58% 30.24 in 10.0 mi Calm Calm - N/A   Partly Cloudy
6:15 AM 53.6 °F 41.0 °F 62% 30.24 in 10.0 mi South 5.8 mph - N/A   Clear
6:51 AM 53.6 °F 42.8 °F 67% 30.25 in 10.0 mi SE 3.5 mph - N/A   Clear
7:51 AM 59.0 °F 42.8 °F 55% 30.25 in 10.0 mi Calm Calm - N/A   Scattered Clouds
8:51 AM 64.4 °F 44.6 °F 49% 30.25 in 10.0 mi Calm Calm - N/A   Clear
9:55 AM 64.4 °F 46.4 °F 52% 30.24 in 10.0 mi WSW 4.6 mph - N/A   Scattered Clouds
10:51 AM 64.4 °F 44.6 °F 49% 30.23 in 10.0 mi South 9.2 mph - N/A   Mostly Cloudy
11:53 AM 62.6 °F 48.2 °F 59% 30.26 in 10.0 mi West 5.8 mph - N/A   Overcast
12:52 PM 64.4 °F 48.2 °F 56% 30.25 in 10.0 mi NW 4.6 mph - N/A   Overcast
1:51 PM 64.4 °F 51.8 °F 64% 30.26 in 10.0 mi NNW 8.1 mph - N/A   Overcast
2:51 PM 64.4 °F 46.4 °F 52% 30.25 in 10.0 mi North 9.2 mph - N/A   Overcast
3:53 PM 64.4 °F 46.4 °F 52% 30.21 in 10.0 mi NNW 6.9 mph - N/A   Overcast
4:51 PM 66.2 °F 44.6 °F 46% 30.19 in 10.0 mi NNW 8.1 mph - N/A   Mostly Cloudy
6:51 PM 60.8 °F 53.6 °F 77% 30.17 in 10.0 mi WNW 6.9 mph 16.1 mph N/A Rain Light Rain
8:51 PM 57.2 °F 53.6 °F 88% 30.14 in 10.0 mi SW 3.5 mph - N/A   Mostly Cloudy
9:15 PM 57.2 °F 53.6 °F 88% 30.14 in 10.0 mi Calm Calm - N/A   Clear
9:35 PM 57.2 °F 53.6 °F 88% 30.15 in 10.0 mi Calm Calm - N/A   Clear
9:55 PM 59.0 °F 53.6 °F 82% 30.16 in 10.0 mi Calm Calm - N/A   Clear
10:15 PM 57.2 °F 51.8 °F 82% 30.16 in 10.0 mi ENE 5.8 mph - N/A   Clear
10:35 PM 55.4 °F 51.8 °F 88% 30.15 in 10.0 mi Calm Calm - N/A   Clear
10:55 PM 55.4 °F 51.8 °F 88% 30.15 in 10.0 mi WSW 3.5 mph - N/A   Clear
11:15 PM 53.6 °F 51.8 °F 94% 30.14 in 10.0 mi Calm Calm - N/A   Clear
11:35 PM 53.6 °F 50.0 °F 88% 30.14 in 10.0 mi ENE 3.5 mph - N/A   Clear